Flag for Canada Weather past 2 weeks in Norman Wells, Northwest Territories, Canada

Now
39 °F

Light rain. Fog.


Feels Like: 30 °F
Forecast: 43 / 54 °F
Wind: 18 mph from Northwest

Location: Norman Wells

Current Time: May 30, 2015 at 3:55:44 PM

Latest Report: May 30, 2015 at 3:00 PM


Visibility: 6 mi

Pressure: 30.15 "Hg

Humidity: 93%

Dew point: 37 °F

Location of Norman WellsLocation

Historic Weather in Norman Wells — Graph

°F

Norman Wells temperature yesterday

Maximum temperature yesterday: 75 °F (at 4:00 PM)
Minimum temperature yesterday: 36 °F (at 4:00 AM)
Average temperature yesterday: 61 °F

Past Weeks' High & Low Weather Summary

 TemperatureHumidityPressure
High86 °F (May 19, 6:00 PM)100% (May 30, 12:00 PM)30.40 "Hg (May 30, 12:00 PM)
Low34 °F (May 17, 5:00 AM)16% (May 29, 6:00 PM)29.90 "Hg (May 19, 8:00 PM)
Average59 °F47%30.10 "Hg
* Reported May 15 3:00 PM — May 30 3:00 PM, Norman Wells, Weather by CustomWeather, © 2015

Note: Actual official high and low records may vary slightly from our data, if they occured in-between our weather recording intervals... More about our weather records

Advertising

Norman Wells weather history for previous 24 hours

 ConditionsComfort  
Time TempWeatherWind HumidityBarometerVisibility
3:00 PM
Sat, May 30
39 °FLight rain. Fog.18 mph93%30.15 "Hg6 mi
2:00 PM39 °FLight rain. Low clouds.18 mph93%30.15 "Hg6 mi
1:00 PM39 °FLight rain. Low clouds.23 mph93%30.14 "Hg15 mi
12:00 PM39 °FLight rain. More clouds than sun.18 mph100%30.13 "Hg10 mi
11:00 AM41 °FLight rain. More clouds than sun.24 mph93%30.11 "Hg10 mi
10:00 AM43 °FLight rain. Mostly cloudy.18 mph93%30.09 "Hg10 mi
9:00 AM46 °FLight rain. Mostly cloudy.22 mph93%30.06 "Hg10 mi
8:00 AM54 °FLight rain. Cloudy.22 mph88%30.01 "Hg30 mi
7:00 AM54 °FMostly cloudy.17 mph82%30.00 "Hg30 mi
6:00 AM55 °FCloudy.10 mph77%29.98 "Hg30 mi
5:00 AM55 °FLight rain. Mostly cloudy.18 mph72%29.98 "Hg25 mi
4:00 AM57 °FMostly cloudy.17 mph59%30.00 "Hg30 mi
3:00 AM59 °FMostly cloudy.17 mph55%29.99 "Hg30 mi
2:00 AM59 °FMostly cloudy.9 mph55%29.99 "Hg30 mi
1:00 AM57 °FBroken clouds.6 mph55%29.99 "Hg30 mi
12:00 AM64 °FPartly sunny.8 mph34%29.99 "Hg30 mi
11:00 PM
Fri, May 29
68 °FBroken clouds.7 mph35%30.00 "Hg30 mi
10:00 PM72 °FPassing clouds.7 mph31%30.01 "Hg25 mi
9:00 PM75 °FPassing clouds.9 mph25%30.01 "Hg30 mi
8:00 PM75 °FPassing clouds.9 mph22%30.01 "Hg30 mi
7:00 PM75 °FPassing clouds.9 mph22%30.03 "Hg30 mi
6:00 PM75 °FPassing clouds.14 mph16%30.04 "Hg25 mi
5:00 PM75 °FSunny.12 mph19%30.05 "Hg25 mi
4:00 PM75 °FSunny.12 mph19%30.07 "Hg30 mi
3:00 PM73 °FPassing clouds.13 mph25%30.09 "Hg25 mi
Weather by CustomWeather, © 2015

See weather overviewHow to use our weather pages